Location: Castelnau
(43.6639°N, 0.8431°W)
Time: 21:49:57
(UTC+00:00)

Okean 3 - Pass Details

Date: 13 January 2026
Orbit: 541 x 564 km, 82.5° (Epoch: 11 February)

Event Time Altitude Azimuth Distance (km) Brightness Sun altitude
Exits shadow 05:38:25 - 360° (N) 2,169 6.2 -20.5°
Reaches altitude 10° 05:39:18 10° 3° (N) 1,822 5.9 -20.4°
Maximum altitude 05:43:10 47° 78° (ENE) 722 4.3 -19.7°
Drops below altitude 10° 05:47:00 10° 154° (SSE) 1,801 6.4 -19.0°
Sets 05:49:12 0° 160° (SSE) 2,687 7.3 -18.6°
